Miscellaneous Local Product
Issued by NWS Hastings, NE

Home | Current Version | Previous Version | Text Only | Print | Product List | Glossary On
Versions: 1 2 3 4 5 6 7 8 9 10 11 12 13 14 15 16 17 18 19 20 21 22 23 24 25 26 27 28 29 30 31 32 33 34 35 36 37 38 39 40 41 42 43 44 45 46 47 48 49 50
000
AXUS43 KGID 011402
MISGRI

GID CWA HOURLY WEATHER ROUNDUP
NATIONAL WEATHER SERVICE HASTINGS NE
900 AM CDT TUE SEP 01 2015

NOTE: "FAIR" INDICATES FEW OR NO CLOUDS BELOW 12,000 FEET WITH NO
SIGNIFICANT WEATHER AND/OR OBSTRUCTIONS TO VISIBILITY.

...SOUTH CENTRAL NEBRASKA...

CITY           SKY/WX    TMP DP  RH WIND       PRES   REMARKS
GRAND ISLAND   CLOUDY    74  60  61 S12       29.94R
HASTINGS         N/A     71  62  73 SW8       29.95R
KEARNEY        PTSUNNY   72  57  60 S12       29.94R
ORD            CLOUDY    68  64  87 CALM      29.92R
YORK           CLOUDY    68  64  88 S8        29.94S
AURORA         CLOUDY    70  64  80 S9        29.93R
LEXINGTON      CLOUDY    71  61  71 S5        29.93S
HOLDREGE       CLOUDY    70  57  62 SW6       29.95S
HEBRON         PTSUNNY   74  62  65 S9        29.96S

...NEBRASKA PANHANDLE...

CITY           SKY/WX    TMP DP  RH WIND       PRES   REMARKS
CHADRON        SUNNY     68  50  52 W6        29.92S
ALLIANCE       MOSUNNY   68  53  58 W8        29.98R
SCOTTSBLUFF    SUNNY     60  53  77 NW5       29.99S
SIDNEY         SUNNY     65  51  60 SW6       30.04R

...WESTERN AND NORTH CENTRAL NEBRASKA...

CITY           SKY/WX    TMP DP  RH WIND       PRES   REMARKS
VALENTINE      PTSUNNY   68  63  84 CALM      29.93F
AINSWORTH      LGT RAIN  68  67  95 NW9       29.91F
ONEILL         CLOUDY    70  67  92 W6        29.91S
BROKEN BOW     CLOUDY    70  61  73 CALM      29.93R
IMPERIAL       MOSUNNY   66  59  78 W5        29.99S
NORTH PLATTE   PTSUNNY   69  63  81 CALM      29.95R
MCCOOK         MOSUNNY   70  62  76 W8        29.95S

...EASTERN NEBRASKA...

CITY           SKY/WX    TMP DP  RH WIND       PRES   REMARKS
NORFOLK        MOSUNNY   71  64  78 S5        29.90S
SO SIOUX CITY  MOSUNNY   71  65  81 SE8       29.89F
TEKAMAH        MOSUNNY   72  69  90 S9        29.92S
COLUMBUS       PTSUNNY   72  61  68 SW5       29.93S
ALBION         CLOUDY    67  64  87 SE5       29.92S
OMAHA EPPLEY   MOSUNNY   74  68  81 S9        29.95S
OFFUTT AFB     MOSUNNY   73  69  88 SE6       29.95S
MILLARD        MOSUNNY   73  69  87 SE6       29.94S
LINCOLN        MOSUNNY   75  67  76 S8        29.95R
NEBRASKA CITY  SUNNY     73  66  78 S10       29.98R
BEATRICE       MOSUNNY   73  66  80 S9        29.97S
FALLS CITY     SUNNY     76  67  73 S14       29.98F

...NORTHERN KANSAS...

CITY           SKY/WX    TMP DP  RH WIND       PRES   REMARKS
GOODLAND       MOSUNNY   66  60  81 W8        30.02R
HILL CITY      LGT RAIN  70  62  76 SW7       29.96S
NORTON         SUNNY     70  55  60 S12       29.95S
PHILLIPSBURG   SUNNY     73  64  73 S6        29.93F
SMITH CENTER   SUNNY     79  61  53 S14       29.95F
HAYS           MOSUNNY   77  57  50 S16       29.96S
RUSSELL        MOSUNNY   78  61  55 S18       29.95R
CONCORDIA      MOSUNNY   74  63  68 S17G24    29.96S
SALINA         SUNNY     77  63  61 S15       29.98R
TOPEKA         MOSUNNY   76  68  76 S6        30.01S



USA.gov is the U.S. government's official web portal to all federal, state and local government web resources and services.